sat.trackr.live / text

‹ back to catalog

STARLING 3

NORAD 57389 · 2023-100D

PAYLOAD ACTIVE UNKNOWN

§ Identity

Operator
Country
US
Launch date
2023-07-18
Launch site
RLLB
Launch vehicle
Mass (kg)
RCS (m²)

External: N2YO · Heavens-Above · Gunter

§ Orbital elements

Epoch: 2026-09-21T22:05:05.145216Z

Period
95.15 min
Inclination
99.4999°
Eccentricity
0.0005810
Mean motion
15.13325698 rev/d
Perigee alt
522.1 km
Apogee alt
530.1 km
Semi-major
6,904.2 km
B*
2.0494e-4
RAAN
309.3262°
Arg perigee
148.4001°
Mean anomaly
211.7574°
Rev number
17,469

§ Raw data

STARLING 31 57389U 23100D   26264.92019844  .00003556  00000+0  20494-3 0  99952 57389  99.4999 309.3262 0005810 148.4001 211.7574 15.13325698174697

JSON: /api/v1/satellites/57389 · /tle

For live sub-satellite position, see the globe view (requires WebGL).

§ Visibility from observer

Set your observer location to see the next 7 days of passes ≥ 10°. The values pass through the URL so the page stays shareable.

No JS? Fill the form by hand. The geolocation button needs JavaScript.